Location: Bo?a Wola
(50.4192°N, 19.7966°E)
Time: 05:57:07
(UTC+00:00)

CZ-4C R/B - Pass Details

Date: 19 September 2024
Orbit: 519 x 1471 km, 63.4° (Epoch: 09 October)

Event Time Altitude Azimuth Distance (km) Brightness Sun altitude
Exits shadow 00:53:01 34° 329° (NNW) 1,338 3.3 -30.4°
Maximum altitude 00:53:22 34° 337° (NNW) 1,345 3.4 -30.4°
Drops below altitude 10° 00:59:04 10° 41° (NE) 2,755 5.8 -29.8°
Sets 01:02:17 0° 50° (NE) 3,883 6.8 -29.4°
